MPEC 2004-O39 : 2004 OW10

The following Minor Planet Electronic Circular may be linked-to from your own Web pages, but must not otherwise be redistributed electronically.


Read MPEC 2004-O38 Read MPEC 2004-O40


M.P.E.C. 2004-O39                                Issued 2004 July 27, 11:55 UT

     The Minor Planet Electronic Circulars contain information on unusual
         minor planets and routine data on comets.  They are published
   on behalf of Commission 20 of the International Astronomical Union by the
          Minor Planet Center, Smithsonian Astrophysical Observatory,
                          Cambridge, MA 02138, U.S.A.

                  Supported in part by the Brinson Foundation
             Prepared using the Tamkin Foundation Computer Network

                              MPC@CFA.HARVARD.EDU
          URL http://cfa-www.harvard.edu/iau/mpc.html  ISSN 1523-6714

                                   2004 OW10

Observations:
     K04O10W* C2004 07 25.39384 22 11 34.43 -24 18 36.7          18.3 R EO039699
     K04O10W  C2004 07 25.40360 22 11 30.76 -24 18 38.2                 EO039699
     K04O10W  C2004 07 25.41334 22 11 26.99 -24 18 40.3                 EO039699
     K04O10W  C2004 07 25.42310 22 11 23.37 -24 18 43.5                 EO039699
     K04O10W  C2004 07 26.30550 22 07 11.51 -24 22 24.0          18.9 R EO039H36
     K04O10W  C2004 07 26.30948 22 07 10.05 -24 22 25.5          18.2 R EO039H36
     K04O10W  C2004 07 26.31353 22 07 08.78 -24 22 27.0          18.7 R EO039H36
     K04O10W  C2004 07 26.32247 22 07 05.53 -24 22 29.1          18.8 R EO039H36
     K04O10W  C2004 07 27.30246 22 02 53.52 -24 25 21.8          19.4 R EO039H36
     K04O10W  C2004 07 27.31079 22 02 51.04 -24 25 23.3                 EO039H36
     K04O10W  C2004 07 27.32021 22 02 48.10 -24 25 25.4                 EO039H36
     K04O10W  C2004 07 27.32934 22 02 45.46 -24 25 27.7          18.8 R EO039H36
     K04O10W  C2004 07 27.42569 22 02 29.12 -24 21 57.5          19.4 R EO039474
     K04O10W 5C2004 07 27.42708 22 02 19.90 -24 25 34.6          18.0 R EO039673
     K04O10W  C2004 07 27.42766 22 02 28.83 -24 21 58.2          19.0 R EO039474
     K04O10W  C2004 07 27.42940 22 02 28.30 -24 21 59.4          19.3 R EO039474
     K04O10W  C2004 07 27.43125 22 02 27.92 -24 21 59.1          19.1 R EO039474
     K04O10W 5C2004 07 27.43750 22 02 16.56 -24 25 35.0                 EO039673
     K04O10W 5C2004 07 27.44948 22 02 13.08 -24 25 35.7                 EO039673

Observer details:
474 Mount John Observatory, Lake Tekapo.  Observer A. C. Gilmore.  Measurer
    P. M. Kilmartin.  0.6-m f/6.4 reflector + CCD.
673 Table Mountain Observatory, Wrightwood.  Observer D. Mayes.  Measurer
    M. Vale.  0.6-m reflector + CCD.
699 Lowell Observatory-LONEOS.  Observer M. E. Van Ness.  0.59-m LONEOS
    Schmidt + CCD.
H36 Sandlot Observatory, Scranton.  Observer G. Hug.  0.3-m Schmidt-Cassegrain
    + CCD.

Orbital elements:
2004 OW10
Epoch 2004 July 14.0 TT = JDT 2453200.5                 MPC
M  36.76497              (2000.0)            P               Q
n   0.72730946     Peri.  130.81280     -0.59376025     +0.80423202
a   1.2245877      Node   102.74466     -0.74594555     -0.53819924
e   0.2501104      Incl.    1.50888     -0.30168527     -0.25209608
P   1.36           H   24.4           G   0.15
From 16 observations 2004 July 25-27.

Ephemeris:
2004 OW10                a,e,i = 1.22, 0.25, 2                   q = 0.9183
Date    TT    R. A. (2000) Decl.     Delta      r     Elong.  Phase     V
2004 07 24    22 19.50   -24 07.4    0.042    1.053   150.8    28.1    18.9
2004 08 03    21 43.26   -24 26.7    0.079    1.091   166.5    12.5    19.8
2004 08 13    21 28.15   -24 06.8    0.119    1.131   170.5     8.5    20.6
2004 08 23    21 21.24   -23 27.8    0.166    1.171   163.5    14.2    21.6
2004 09 02    21 20.04   -22 33.3    0.219    1.211   154.8    20.8    22.5

Timothy B. Spahr             (C) Copyright 2004 MPC           M.P.E.C. 2004-O39

Read MPEC 2004-O38 Read MPEC 2004-O40


Our Web policy. Index to the CBAT/MPC/ICQ pages.

MPC